Content
SEND FEEDBACK

Daily
Averages
Monthly
Summary
France

AVIGNON, FRANCE


Home > Europe > France
Elevation: 187 feet     Latitude: 44 00N     Longitude: 004 45E

WEATHER
 
SELECT A DAY
Number of Records: 173,555;   Date Range: 5/17/04 - 11/20/14
 
SHARE

PRINT THIS DATA

[ ← Previous Day ]
WEATHER ALMANAC - JANUARY 6, 2013
[ Next Day → ]
[ °C ]   °F
Weather ElementAverageHighLow
Temperature47.9 °F53.6 °F (1:00 pm)44.6 °F (8:00 pm)
Dewpoint38.6 °F41 °F (1:30 pm)37.4 °F (3:00 am)
Humidity70.5 %81 % (8:00 pm)58 % (1:00 pm)
Barometer30.24 in30.30 in (9:00 am)30.18 in (12:30 am)
Wind Speed19.7 mph33.4 mph (12:30 am)
Wind Gust48.3 mph (12:30 am)
Weather ElementAverage
Visibility6.2 mi
Wind DirectionNW (317.5 °)

Weather ElementTotal
Precipitation---
Heating Degree Days15.9 (Base 65)
Averaged from 44 records on January 6, 2013
WEATHER CONDITIONS BREAKOUT
WIND DIRECTION BREAKOUT
WEATHER BY HOUR - JANUARY 6, 2013
[ °C ]   °F
Local TimeTemperatureDewpointHumidityBarometerVisibilityWind DirectionWind SpeedGust SpeedPrecipitationEventsConditions
12:30 AM48.2 °F39.2 °F71 %30.18 in6.2 miNorth (360°)33.4 mph48.3 mph
1:00 AM48.2 °F39.2 °F71 %30.21 in6.2 miNorth (10°)28.8 mph46.0 mph
1:30 AM48.2 °F39.2 °F71 %30.21 in6.2 miNorth (10°)27.6 mph41.4 mph
2:00 AM48.2 °F39.2 °F71 %30.21 in6.2 miNorth (10°)27.6 mph41.4 mph
2:30 AM48.2 °F39.2 °F71 %30.24 in6.2 miNorth (10°)21.9 mph36.8 mph
3:00 AM46.4 °F37.4 °F71 %30.24 in6.2 miNorth (360°)18.4 mph29.9 mph
3:30 AM46.4 °F37.4 °F71 %30.24 in6.2 miNorth (360°)18.4 mph
4:00 AM48.2 °F39.2 °F71 %30.24 in6.2 miNorth (360°)23.0 mph40.3 mph
4:30 AM48.2 °F37.4 °F66 %30.24 in6.2 miNorth (360°)23.0 mph35.7 mph
5:00 AM48.2 °F37.4 °F66 %30.24 in6.2 miNorth (360°)26.5 mph
5:30 AM48.2 °F37.4 °F66 %30.24 in6.2 miNorth (360°)25.3 mph38.0 mph
6:00 AM46.4 °F37.4 °F71 %30.24 in6.2 miNorth (360°)24.2 mph
6:30 AM46.4 °F37.4 °F71 %30.24 in6.2 miNorth (360°)25.3 mph36.8 mph
7:00 AM46.4 °F37.4 °F71 %30.24 in6.2 miNorth (360°)23.0 mph
7:30 AM46.4 °F37.4 °F71 %30.27 in6.2 miNorth (360°)20.7 mph
8:00 AM46.4 °F37.4 °F71 %30.27 in6.2 miNorth (360°)18.4 mph
8:30 AM46.4 °F37.4 °F71 %30.27 in6.2 miNorth (360°)19.6 mph
9:00 AM46.4 °F37.4 °F71 %30.30 in6.2 miNorth (360°)16.1 mph
9:30 AM48.2 °F37.4 °F66 %30.27 in6.2 miNorth (360°)18.4 mph
10:00 AM48.2 °F39.2 °F71 %30.30 in6.2 miNorth (360°)17.3 mph28.8 mph
10:30 AM50.0 °F39.2 °F66 %30.30 in6.2 miNorth (360°)23.0 mph
11:00 AM51.8 °F39.2 °F62 %30.30 in6.2 miNorth (10°)16.1 mph
11:30 AM51.8 °F39.2 °F62 %30.30 in6.2 miNorth (360°)17.3 mph
12:30 PM51.8 °F39.2 °F62 %30.27 in6.2 miNorth (360°)20.7 mph
1:00 PM53.6 °F39.2 °F58 %30.27 in6.2 miNorth (360°)17.3 mph
1:30 PM53.6 °F41.0 °F62 %30.24 in6.2 miNorth (360°)13.8 mph
2:30 PM53.6 °F39.2 °F58 %30.24 in6.2 miNorth (350°)17.3 mph
3:30 PM53.6 °F39.2 °F58 %30.24 in6.2 miNorth (360°)16.1 mph
4:00 PM51.8 °F39.2 °F62 %30.24 in6.2 miNorth (360°)15.0 mph
4:30 PM50.0 °F39.2 °F66 %30.21 in6.2 miNorth (360°)16.1 mph
5:00 PM48.2 °F39.2 °F71 %30.21 in6.2 miNorth (360°)15.0 mph
5:30 PM48.2 °F39.2 °F71 %30.21 in6.2 miNorth (360°)19.6 mph
6:00 PM46.4 °F39.2 °F76 %30.21 in6.2 miNorth (360°)20.7 mph
6:30 PM46.4 °F37.4 °F71 %30.24 in6.2 miNNW (340°)13.8 mph
7:00 PM46.4 °F39.2 °F76 %30.21 in6.2 miNorth (350°)18.4 mph
7:30 PM46.4 °F39.2 °F76 %30.21 in6.2 miNorth (360°)21.9 mph34.5 mph
8:00 PM44.6 °F39.2 °F81 %30.21 in6.2 miNorth (360°)20.7 mph
8:30 PM44.6 °F39.2 °F81 %30.21 in6.2 miNorth (360°)20.7 mph
9:00 PM44.6 °F39.2 °F81 %30.21 in6.2 miNorth (350°)16.1 mph
9:30 PM44.6 °F39.2 °F81 %30.21 in6.2 miNorth (350°)18.4 mph33.4 mph
10:00 PM44.6 °F39.2 °F81 %30.21 in6.2 miNorth (360°)18.4 mph
10:30 PM44.6 °F39.2 °F81 %30.21 in6.2 miNorth (350°)12.7 mph
11:00 PM44.6 °F37.4 °F76 %30.21 in6.2 miNNW (330°)9.2 mph23.0 mph
11:30 PM44.6 °F39.2 °F81 %30.21 in6.2 miNNW (340°)11.5 mph
Hourly data recorded from LFMV, located miles away from Avignon, France







STORIES FROM OUR PARTNERS